| time (UTC) | temp F | wind direction | speed knots | gust knots | rain 1hr in | rain 24hr in | rain mn in | humidity % | barometer mb |
| 20260508022009 | 53 | 222 | 9.6 | 21.7 | 0.00 | 0.02 | 0.01 | 83 | 1024.2 |
| 20260508020505 | 53 | 199 | 8.7 | 15.6 | 0.00 | 0.01 | 0.00 | 81 | 1024.1 |
| 20260508015506 | 54 | 175 | 8.7 | 17.4 | 0.00 | 0.01 | 0.00 | 83 | 1024.2 |
| 20260508014541 | 53 | 199 | 9.6 | 13.9 | 0.00 | 0.01 | 0.00 | 84 | 1024.4 |
| 20260508014010 | 53 | 237 | 6.1 | 13.9 | 0.00 | 0.01 | 0.00 | 84 | 1024.4 |
| 20260508013508 | 53 | 205 | 9.6 | 16.5 | 0.00 | 0.01 | 0.00 | 83 | 1024.3 |
| 20260508012509 | 53 | 254 | 11.3 | 20.9 | 0.00 | 0.01 | 0.00 | 84 | 1024.3 |
| 20260508012010 | 53 | 207 | 8.7 | 20.9 | 0.00 | 0.01 | 0.00 | 83 | 1024.3 |
| 20260508011522 | 53 | 185 | 10.4 | 20.9 | 0.00 | 0.01 | 0.00 | 83 | 1024.2 |
| 20260508011008 | 53 | 209 | 8.7 | 14.8 | 0.00 | 0.01 | 0.00 | 83 | 1024.2 |
| 20260508010508 | 53 | 218 | 7.0 | 19.1 | 0.00 | 0.01 | 0.00 | 82 | 1024.1 |
| 20260508010027 | 53 | 246 | 10.4 | 19.1 | 0.00 | 0.01 | 0.00 | 80 | 1024.0 |
| 20260508005518 | 53 | 248 | 11.3 | 17.4 | 0.00 | 0.01 | 0.00 | 79 | 1024.1 |
| 20260508003506 | 54 | 208 | 8.7 | 16.5 | 0.00 | 0.01 | 0.00 | 77 | 1024.0 |
| 20260508003050 | 54 | 232 | 10.4 | 16.5 | 0.00 | 0.02 | 0.00 | 77 | 1023.9 |
| 20260508002508 | 54 | 200 | 11.3 | 16.5 | 0.00 | 0.02 | 0.00 | 78 | 1023.9 |
| 20260508001006 | 54 | 228 | 7.8 | 16.5 | 0.00 | 0.03 | 0.00 | 79 | 1023.9 |
| 20260508000513 | 53 | 219 | 7.8 | 16.5 | 0.00 | 0.03 | 0.00 | 79 | 1023.8 |
| 20260507235512 | 53 | 235 | 9.6 | 15.6 | 0.00 | 0.03 | 0.00 | 79 | 1023.6 |
| 20260507235010 | 53 | 210 | 10.4 | 18.2 | 0.00 | 0.03 | 0.00 | 80 | 1023.6 |
| 20260507234525 | 53 | 233 | 11.3 | 18.2 | 0.00 | 0.03 | 0.00 | 80 | 1023.6 |
| 20260507234010 | 53 | 222 | 8.7 | 15.6 | 0.00 | 0.03 | 0.00 | 81 | 1023.5 |
| 20260507233510 | 53 | 229 | 7.8 | 19.1 | 0.00 | 0.03 | 0.00 | 81 | 1023.4 |
| 20260507233003 | 53 | 248 | 10.4 | 19.1 | 0.00 | 0.03 | 0.00 | 81 | 1023.4 |
| 20260507232005 | 52 | 238 | 7.8 | 14.8 | 0.00 | 0.03 | 0.00 | 82 | 1023.5 |
| 20260507231503 | 52 | 236 | 8.7 | 20.0 | 0.00 | 0.05 | 0.00 | 82 | 1023.6 |
| 20260507231006 | 52 | 228 | 12.2 | 20.0 | 0.00 | 0.05 | 0.00 | 82 | 1023.5 |
| 20260507230507 | 52 | 243 | 9.6 | 15.6 | 0.00 | 0.05 | 0.00 | 82 | 1023.5 |
| 20260507224512 | 51 | 229 | 9.6 | 17.4 | 0.00 | 0.05 | 0.00 | 84 | 1023.2 |
| 20260507223503 | 51 | 226 | 13.0 | 20.0 | 0.00 | 0.06 | 0.00 | 84 | 1023.1 |
| 20260507222006 | 51 | 247 | 10.4 | 17.4 | 0.00 | 0.06 | 0.00 | 85 | 1023.1 |
| 20260507221003 | 51 | 229 | 9.6 | 16.5 | 0.00 | 0.06 | 0.00 | 85 | 1023.1 |
| 20260507220511 | 51 | 236 | 11.3 | 16.5 | 0.00 | 0.06 | 0.00 | 85 | 1022.9 |
| 20260507220012 | 51 | 246 | 10.4 | 15.6 | 0.00 | 0.07 | 0.00 | 85 | 1022.8 |
| 20260507215504 | 51 | 225 | 7.8 | 17.4 | 0.00 | 0.08 | 0.00 | 86 | 1022.7 |
| 20260507213504 | 50 | 234 | 10.4 | 15.6 | 0.00 | 0.11 | 0.00 | 87 | 1022.5 |
| 20260507211504 | 51 | 218 | 8.7 | 13.0 | 0.00 | 0.11 | 0.00 | 86 | 1022.2 |
| 20260507210504 | 51 | 249 | 8.7 | 13.0 | 0.00 | 0.11 | 0.00 | 86 | 1022.1 |
| 20260507205507 | 51 | 238 | 6.1 | 15.6 | 0.00 | 0.11 | 0.00 | 86 | 1022.1 |
| 20260507205003 | 51 | 237 | 8.7 | 15.6 | 0.00 | 0.11 | 0.00 | 86 | 1022.1 |
| 20260507204516 | 51 | 230 | 7.8 | 13.0 | 0.00 | 0.11 | 0.00 | 86 | 1022.2 |
| 20260507204005 | 51 | 216 | 8.7 | 14.8 | 0.00 | 0.11 | 0.00 | 86 | 1022.1 |
| 20260507202007 | 51 | 244 | 7.0 | 13.9 | 0.00 | 0.11 | 0.00 | 86 | 1021.7 |
| 20260507201004 | 51 | 236 | 9.6 | 14.8 | 0.00 | 0.11 | 0.00 | 86 | 1021.8 |
| 20260507200010 | 51 | 264 | 7.0 | 14.8 | 0.00 | 0.11 | 0.00 | 86 | 1021.7 |
| 20260507194509 | 51 | 238 | 9.6 | 14.8 | 0.00 | 0.11 | 0.00 | 87 | 1021.8 |
| 20260507193507 | 51 | 224 | 10.4 | 17.4 | 0.00 | 0.11 | 0.00 | 87 | 1021.7 |
| 20260507193006 | 51 | 242 | 9.6 | 16.5 | 0.00 | 0.11 | 0.00 | 87 | 1021.7 |
| 20260507192509 | 50 | 226 | 7.0 | 13.0 | 0.00 | 0.11 | 0.00 | 88 | 1021.7 |
| 20260507192006 | 50 | 243 | 6.1 | 12.2 | 0.00 | 0.11 | 0.00 | 88 | 1021.7 |
| 20260507190506 | 50 | 242 | 3.5 | 11.3 | 0.00 | 0.12 | 0.00 | 87 | 1021.6 |
| 20260507185003 | 50 | 246 | 2.6 | 8.7 | 0.00 | 0.11 | 0.00 | 87 | 1021.5 |
| 20260507184515 | 50 | 243 | 2.6 | 8.7 | 0.00 | 0.11 | 0.00 | 87 | 1021.5 |
| 20260507184005 | 50 | 218 | 4.3 | 11.3 | 0.00 | 0.11 | 0.00 | 87 | 1021.4 |
| 20260507183016 | 50 | 237 | 4.3 | 10.4 | 0.00 | 0.11 | 0.00 | 87 | 1021.3 |
| 20260507182506 | 50 | 227 | 4.3 | 9.6 | 0.00 | 0.11 | 0.00 | 86 | 1021.1 |
| 20260507181514 | 50 | 234 | 3.5 | 7.8 | 0.00 | 0.11 | 0.00 | 86 | 1021.1 |
| 20260507181013 | 50 | 242 | 3.5 | 7.8 | 0.00 | 0.11 | 0.00 | 86 | 1021.2 |
| 20260507180508 | 50 | 249 | 3.5 | 6.1 | 0.00 | 0.11 | 0.00 | 85 | 1021.1 |
| 20260507180013 | 50 | 258 | 3.5 | 8.7 | 0.00 | 0.11 | 0.00 | 85 | 1021.1 |
| 20260507175006 | 50 | 246 | 4.3 | 12.2 | 0.00 | 0.11 | 0.00 | 84 | 1021.0 |
| 20260507174510 | 50 | 249 | 5.2 | 12.2 | 0.00 | 0.11 | 0.00 | 84 | 1020.9 |
| 20260507174007 | 50 | 216 | 6.1 | 12.2 | 0.00 | 0.11 | 0.00 | 83 | 1020.9 |
| 20260507173016 | 51 | 241 | 7.8 | 13.9 | 0.00 | 0.11 | 0.00 | 81 | 1020.8 |
| 20260507172006 | 50 | 240 | 6.1 | 9.6 | 0.00 | 0.11 | 0.00 | 81 | 1020.7 |
| 20260507171522 | 50 | 241 | 6.1 | 9.6 | 0.00 | 0.11 | 0.00 | 81 | 1020.8 |
| 20260507171006 | 51 | 226 | 6.1 | 8.7 | 0.00 | 0.11 | 0.00 | 80 | 1020.8 |
| 20260507170507 | 51 | 245 | 5.2 | 11.3 | 0.00 | 0.11 | 0.00 | 80 | 1020.9 |
| 20260507170025 | 51 | 224 | 7.0 | 11.3 | 0.00 | 0.11 | 0.00 | 79 | 1020.8 |
| 20260507165506 | 51 | 225 | 7.0 | 10.4 | 0.00 | 0.11 | 0.00 | 79 | 1020.8 |
| 20260507165007 | 51 | 241 | 6.1 | 15.6 | 0.00 | 0.11 | 0.00 | 79 | 1021.0 |
| 20260507164517 | 51 | 247 | 6.1 | 15.6 | 0.00 | 0.11 | 0.00 | 79 | 1021.0 |
| 20260507164007 | 51 | 249 | 7.8 | 15.6 | 0.00 | 0.11 | 0.00 | 79 | 1021.0 |
| 20260507163507 | 51 | 287 | 7.8 | 15.6 | 0.00 | 0.11 | 0.00 | 79 | 1021.0 |
| 20260507163019 | 51 | 238 | 8.7 | 15.6 | 0.00 | 0.11 | 0.00 | 79 | 1020.9 |
| 20260507162510 | 51 | 280 | 7.8 | 13.9 | 0.00 | 0.11 | 0.00 | 79 | 1021.0 |
| 20260507162008 | 50 | 258 | 7.8 | 13.9 | 0.00 | 0.11 | 0.00 | 79 | 1021.0 |
| 20260507161517 | 50 | 256 | 7.8 | 13.0 | 0.00 | 0.11 | 0.00 | 79 | 1021.1 |
| 20260507160015 | 50 | 209 | 8.7 | 13.9 | 0.00 | 0.11 | 0.00 | 79 | 1021.2 |
| 20260507155011 | 50 | 270 | 6.1 | 9.6 | 0.00 | 0.11 | 0.00 | 80 | 1021.1 |
| 20260507154522 | 50 | 228 | 4.3 | 11.3 | 0.00 | 0.11 | 0.00 | 79 | 1021.1 |
| 20260507154010 | 50 | 241 | 4.3 | 11.3 | 0.00 | 0.11 | 0.00 | 79 | 1021.2 |
| 20260507153507 | 50 | 254 | 7.0 | 12.2 | 0.00 | 0.11 | 0.00 | 79 | 1021.2 |
| 20260507153032 | 50 | 234 | 6.1 | 13.0 | 0.00 | 0.11 | 0.00 | 79 | 1021.1 |
| 20260507152508 | 50 | 231 | 8.7 | 15.6 | 0.00 | 0.11 | 0.00 | 79 | 1021.1 |
| 20260507152009 | 50 | 212 | 7.8 | 15.6 | 0.00 | 0.11 | 0.00 | 78 | 1021.3 |
| 20260507151516 | 50 | 268 | 8.7 | 13.9 | 0.00 | 0.11 | 0.00 | 78 | 1021.3 |
| 20260507150508 | 50 | 247 | 9.6 | 16.5 | 0.00 | 0.11 | 0.00 | 78 | 1021.3 |
| 20260507150021 | 50 | 235 | 7.8 | 16.5 | 0.00 | 0.11 | 0.00 | 78 | 1021.3 |
| 20260507145507 | 50 | 244 | 7.8 | 13.9 | 0.00 | 0.11 | 0.00 | 77 | 1021.4 |
| 20260507145009 | 50 | 235 | 7.0 | 13.9 | 0.00 | 0.11 | 0.00 | 77 | 1021.3 |
| 20260507144522 | 50 | 262 | 6.1 | 11.3 | 0.00 | 0.11 | 0.00 | 77 | 1021.4 |
| 20260507144010 | 50 | 247 | 6.1 | 11.3 | 0.00 | 0.11 | 0.00 | 77 | 1021.5 |
| 20260507143508 | 50 | 252 | 6.1 | 13.0 | 0.00 | 0.11 | 0.00 | 77 | 1021.5 |
| 20260507143010 | 50 | 256 | 7.0 | 13.0 | 0.00 | 0.11 | 0.00 | 77 | 1021.5 |
| 20260507142003 | 50 | 239 | 4.3 | 10.4 | 0.00 | 0.11 | 0.00 | 78 | 1021.5 |
| 20260507141515 | 50 | 245 | 3.5 | 11.3 | 0.00 | 0.11 | 0.00 | 77 | 1021.4 |
| 20260507141006 | 50 | 249 | 5.2 | 12.2 | 0.00 | 0.11 | 0.00 | 77 | 1021.4 |
| 20260507140025 | 50 | 251 | 7.8 | 10.4 | 0.00 | 0.11 | 0.00 | 77 | 1021.7 |
| 20260507135506 | 50 | 243 | 7.0 | 10.4 | 0.00 | 0.11 | 0.11 | 78 | 1021.7 |
| 20260507135008 | 50 | 260 | 5.2 | 12.2 | 0.00 | 0.11 | 0.11 | 77 | 1021.7 |
| 20260507134505 | 50 | 239 | 7.0 | 12.2 | 0.00 | 0.11 | 0.11 | 77 | 1021.7 |
| 20260507134004 | 50 | 233 | 7.0 | 11.3 | 0.00 | 0.11 | 0.11 | 77 | 1021.7 |
| 20260507133503 | 49 | 287 | 3.5 | 13.0 | 0.00 | 0.11 | 0.11 | 77 | 1021.9 |
| 20260507133007 | 49 | 218 | 5.2 | 13.0 | 0.00 | 0.11 | 0.11 | 77 | 1022.0 |
| 20260507132506 | 49 | 246 | 3.5 | 12.2 | 0.00 | 0.11 | 0.11 | 77 | 1022.1 |
| 20260507132005 | 49 | 243 | 6.1 | 9.6 | 0.00 | 0.11 | 0.11 | 77 | 1022.1 |
| 20260507131512 | 49 | 252 | 2.6 | 7.8 | 0.00 | 0.11 | 0.11 | 77 | 1022.3 |
| 20260507131009 | 49 | 267 | 3.5 | 8.7 | 0.00 | 0.11 | 0.11 | 77 | 1022.3 |
| 20260507130505 | 49 | 245 | 5.2 | 13.9 | 0.00 | 0.11 | 0.11 | 77 | 1022.3 |
| 20260507125510 | 49 | 261 | 5.2 | 13.0 | 0.00 | 0.11 | 0.11 | 76 | 1022.4 |
| 20260507125006 | 49 | 246 | 7.0 | 13.0 | 0.00 | 0.11 | 0.11 | 76 | 1022.4 |
| 20260507124526 | 49 | 251 | 7.0 | 13.0 | 0.00 | 0.11 | 0.11 | 76 | 1022.4 |
| 20260507124009 | 49 | 258 | 4.3 | 14.8 | 0.00 | 0.11 | 0.11 | 76 | 1022.5 |
| 20260507123024 | 49 | 259 | 7.8 | 14.8 | 0.00 | 0.11 | 0.11 | 76 | 1022.6 |
| 20260507122507 | 49 | 257 | 7.0 | 13.9 | 0.00 | 0.11 | 0.11 | 76 | 1022.7 |
| 20260507122006 | 49 | 256 | 8.7 | 13.9 | 0.00 | 0.11 | 0.11 | 76 | 1022.8 |
| 20260507121506 | 49 | 268 | 5.2 | 10.4 | 0.00 | 0.11 | 0.11 | 76 | 1022.7 |
| 20260507121004 | 48 | 262 | 5.2 | 10.4 | 0.00 | 0.11 | 0.11 | 76 | 1022.8 |
| 20260507120503 | 48 | 274 | 6.1 | 10.4 | 0.00 | 0.11 | 0.11 | 76 | 1022.9 |
| 20260507115506 | 48 | 245 | 6.1 | 12.2 | 0.00 | 0.11 | 0.11 | 76 | 1022.9 |
| 20260507115009 | 48 | 272 | 6.1 | 9.6 | 0.00 | 0.11 | 0.11 | 76 | 1023.0 |
| 20260507114511 | 48 | 272 | 6.1 | 8.7 | 0.00 | 0.11 | 0.11 | 76 | 1023.0 |
| 20260507114008 | 48 | 266 | 2.6 | 7.8 | 0.00 | 0.11 | 0.11 | 76 | 1023.0 |
| 20260507113506 | 48 | 264 | 4.3 | 11.3 | 0.00 | 0.11 | 0.11 | 75 | 1022.9 |
| 20260507113004 | 48 | 277 | 5.2 | 11.3 | 0.00 | 0.11 | 0.11 | 75 | 1022.9 |
| 20260507112504 | 48 | 269 | 7.0 | 10.4 | 0.00 | 0.11 | 0.11 | 75 | 1023.0 |
| 20260507112003 | 48 | 267 | 7.0 | 10.4 | 0.00 | 0.11 | 0.11 | 75 | 1023.0 |
| 20260507111507 | 48 | 273 | 3.5 | 10.4 | 0.00 | 0.12 | 0.11 | 75 | 1023.0 |
| 20260507111004 | 48 | 250 | 4.3 | 10.4 | 0.00 | 0.12 | 0.11 | 75 | 1022.9 |
| 20260507110501 | 48 | 238 | 5.2 | 10.4 | 0.00 | 0.12 | 0.11 | 75 | 1023.1 |
| 20260507110011 | 48 | 270 | 4.3 | 10.4 | 0.00 | 0.12 | 0.11 | 75 | 1023.2 |
| 20260507105501 | 48 | 272 | 6.1 | 9.6 | 0.00 | 0.13 | 0.11 | 75 | 1023.1 |
| 20260507105002 | 48 | 243 | 5.2 | 8.7 | 0.00 | 0.14 | 0.11 | 75 | 1023.2 |
| 20260507104504 | 48 | 278 | 3.5 | 7.8 | 0.00 | 0.14 | 0.11 | 74 | 1023.2 |
| 20260507104001 | 48 | 245 | 5.2 | 9.6 | 0.00 | 0.15 | 0.11 | 75 | 1023.3 |
| 20260507103503 | 48 | 250 | 4.3 | 9.6 | 0.00 | 0.16 | 0.11 | 75 | 1023.6 |
| 20260507103008 | 48 | 239 | 4.3 | 9.6 | 0.00 | 0.16 | 0.11 | 75 | 1023.6 |
| 20260507102502 | 47 | 268 | 2.6 | 7.8 | 0.00 | 0.17 | 0.11 | 75 | 1023.5 |
| 20260507102006 | 48 | 270 | 2.6 | 8.7 | 0.00 | 0.18 | 0.11 | 75 | 1023.4 |
| 20260507101508 | 48 | 259 | 4.3 | 8.7 | 0.00 | 0.18 | 0.11 | 74 | 1023.5 |
| 20260507101005 | 48 | 246 | 3.5 | 12.2 | 0.00 | 0.22 | 0.11 | 74 | 1023.5 |
| 20260507100504 | 48 | 261 | 6.1 | 12.2 | 0.00 | 0.30 | 0.11 | 74 | 1023.5 |
| 20260507100005 | 48 | 288 | 7.0 | 11.3 | 0.00 | 0.34 | 0.11 | 73 | 1023.5 |
| 20260507095505 | 48 | 250 | 6.1 | 12.2 | 0.00 | 0.34 | 0.11 | 73 | 1023.4 |
| 20260507095008 | 48 | 262 | 7.8 | 12.2 | 0.00 | 0.34 | 0.11 | 73 | 1023.5 |
| 20260507094514 | 48 | 240 | 5.2 | 13.0 | 0.00 | 0.34 | 0.11 | 73 | 1023.5 |
| 20260507094003 | 48 | 268 | 7.8 | 12.2 | 0.00 | 0.34 | 0.11 | 72 | 1023.5 |
| 20260507093504 | 48 | 250 | 7.0 | 12.2 | 0.00 | 0.34 | 0.11 | 72 | 1023.5 |
| 20260507093004 | 48 | 251 | 7.8 | 12.2 | 0.00 | 0.34 | 0.11 | 72 | 1023.5 |
| 20260507092502 | 48 | 243 | 5.2 | 13.9 | 0.00 | 0.34 | 0.11 | 72 | 1023.4 |
| 20260507092001 | 48 | 264 | 7.8 | 13.9 | 0.00 | 0.34 | 0.11 | 72 | 1023.4 |
| 20260507091513 | 48 | 293 | 3.5 | 8.7 | 0.00 | 0.35 | 0.11 | 72 | 1023.4 |
| 20260507091004 | 48 | 248 | 2.6 | 9.6 | 0.00 | 0.36 | 0.11 | 71 | 1023.2 |
| 20260507090503 | 48 | 269 | 6.1 | 10.4 | 0.00 | 0.36 | 0.11 | 70 | 1023.0 |
| 20260507090008 | 48 | 244 | 6.1 | 10.4 | 0.00 | 0.36 | 0.11 | 70 | 1023.1 |
| 20260507085503 | 48 | 289 | 4.3 | 9.6 | 0.00 | 0.36 | 0.11 | 70 | 1023.2 |
| 20260507085003 | 48 | 267 | 6.1 | 9.6 | 0.00 | 0.36 | 0.11 | 70 | 1023.0 |
| 20260507084506 | 49 | 262 | 3.5 | 7.8 | 0.00 | 0.36 | 0.11 | 70 | 1022.9 |
| 20260507084003 | 49 | 251 | 3.5 | 7.8 | 0.00 | 0.36 | 0.11 | 69 | 1022.9 |
| 20260507083505 | 49 | 254 | 5.2 | 8.7 | 0.00 | 0.36 | 0.11 | 69 | 1022.8 |
| 20260507083006 | 49 | 235 | 2.6 | 10.4 | 0.00 | 0.36 | 0.11 | 68 | 1022.7 |
| 20260507082508 | 49 | 243 | 5.2 | 10.4 | 0.00 | 0.36 | 0.11 | 68 | 1022.7 |
| 20260507082005 | 49 | 255 | 3.5 | 9.6 | 0.00 | 0.36 | 0.11 | 68 | 1022.7 |
| 20260507081505 | 49 | 226 | 5.2 | 11.3 | 0.00 | 0.36 | 0.11 | 68 | 1022.6 |
| 20260507081004 | 49 | 246 | 4.3 | 11.3 | 0.00 | 0.36 | 0.11 | 68 | 1022.7 |
| 20260507080503 | 49 | 223 | 6.1 | 13.9 | 0.00 | 0.36 | 0.11 | 67 | 1022.6 |
| 20260507080005 | 49 | 218 | 7.0 | 15.6 | 0.00 | 0.36 | 0.11 | 67 | 1022.6 |
| 20260507075505 | 49 | 241 | 7.0 | 16.5 | 0.00 | 0.36 | 0.11 | 67 | 1022.7 |
| 20260507075007 | 49 | 233 | 9.6 | 16.5 | 0.00 | 0.36 | 0.11 | 68 | 1022.8 |
| 20260507074508 | 49 | 268 | 3.5 | 9.6 | 0.00 | 0.36 | 0.11 | 69 | 1022.6 |
| 20260507074005 | 49 | 229 | 4.3 | 9.6 | 0.00 | 0.36 | 0.11 | 69 | 1022.6 |
| 20260507073502 | 49 | 254 | 3.5 | 8.7 | 0.00 | 0.36 | 0.11 | 69 | 1022.7 |
| 20260507073013 | 49 | 228 | 5.2 | 7.8 | 0.00 | 0.36 | 0.11 | 69 | 1022.6 |
| 20260507072505 | 49 | 237 | 3.5 | 7.8 | 0.00 | 0.36 | 0.11 | 70 | 1022.6 |
| 20260507072004 | 49 | 245 | 3.5 | 7.8 | 0.00 | 0.36 | 0.11 | 71 | 1022.6 |
| 20260507071509 | 48 | 241 | 3.5 | 6.1 | 0.00 | 0.36 | 0.11 | 72 | 1022.6 |
| 20260507071004 | 48 | 267 | 1.7 | 7.0 | 0.00 | 0.36 | 0.11 | 72 | 1022.6 |
| 20260507070508 | 48 | 262 | 3.5 | 7.0 | 0.00 | 0.36 | 0.11 | 72 | 1022.6 |
| 20260507065503 | 48 | 260 | 1.7 | 5.2 | 0.00 | 0.36 | 0.11 | 72 | 1022.5 |
| 20260507065001 | 48 | 260 | 2.6 | 9.6 | 0.00 | 0.36 | 0.11 | 71 | 1022.6 |
| 20260507064510 | 48 | 214 | 4.3 | 9.6 | 0.00 | 0.36 | 0.11 | 70 | 1022.6 |
| 20260507064004 | 48 | 204 | 3.5 | 9.6 | 0.00 | 0.36 | 0.11 | 70 | 1022.6 |
| 20260507063505 | 48 | 220 | 5.2 | 10.4 | 0.00 | 0.36 | 0.11 | 70 | 1022.6 |
| 20260507063006 | 48 | 245 | 7.0 | 11.3 | 0.00 | 0.36 | 0.11 | 69 | 1022.7 |
| 20260507062508 | 48 | 189 | 6.1 | 12.2 | 0.00 | 0.36 | 0.11 | 70 | 1022.7 |
| 20260507062006 | 49 | 247 | 8.7 | 12.2 | 0.00 | 0.36 | 0.11 | 69 | 1022.8 |
| 20260507061526 | 49 | 237 | 7.0 | 12.2 | 0.00 | 0.36 | 0.11 | 69 | 1022.8 |
| 20260507061008 | 48 | 222 | 7.0 | 12.2 | 0.00 | 0.36 | 0.11 | 70 | 1022.7 |
| 20260507060504 | 48 | 217 | 4.3 | 11.3 | 0.00 | 0.36 | 0.11 | 71 | 1022.7 |
| 20260507060021 | 48 | 212 | 6.1 | 12.2 | 0.00 | 0.36 | 0.11 | 71 | 1022.7 |
| 20260507055507 | 48 | 226 | 6.1 | 13.0 | 0.00 | 0.36 | 0.11 | 72 | 1022.7 |
| 20260507055004 | 47 | 180 | 8.7 | 14.8 | 0.00 | 0.36 | 0.11 | 72 | 1022.7 |
| 20260507054514 | 47 | 216 | 9.6 | 20.9 | 0.00 | 0.36 | 0.11 | 73 | 1022.8 |
| 20260507054004 | 48 | 208 | 13.0 | 20.9 | 0.00 | 0.36 | 0.11 | 70 | 1022.8 |
| 20260507053504 | 49 | 213 | 8.7 | 15.6 | 0.00 | 0.36 | 0.11 | 69 | 1022.7 |
| 20260507053006 | 49 | 243 | 7.0 | 14.8 | 0.00 | 0.36 | 0.11 | 69 | 1022.5 |
| 20260507052504 | 49 | 229 | 7.0 | 13.0 | 0.00 | 0.36 | 0.11 | 69 | 1022.4 |
| 20260507052003 | 49 | 220 | 6.1 | 13.9 | 0.00 | 0.36 | 0.11 | 69 | 1022.4 |
| 20260507051508 | 49 | 227 | 7.0 | 15.6 | 0.00 | 0.36 | 0.11 | 68 | 1022.3 |
| 20260507051007 | 49 | 202 | 10.4 | 15.6 | 0.00 | 0.36 | 0.11 | 68 | 1022.4 |
| 20260507050506 | 49 | 185 | 8.7 | 13.9 | 0.00 | 0.36 | 0.11 | 69 | 1022.4 |
| 20260507050011 | 49 | 219 | 5.2 | 13.9 | 0.00 | 0.36 | 0.11 | 69 | 1022.5 |
| 20260507045508 | 49 | 256 | 9.6 | 15.6 | 0.00 | 0.36 | 0.11 | 69 | 1022.5 |
| 20260507045006 | 49 | 243 | 9.6 | 18.2 | 0.00 | 0.36 | 0.11 | 69 | 1022.4 |
| 20260507044011 | 48 | 216 | 9.6 | 19.1 | 0.00 | 0.36 | 0.11 | 68 | 1022.4 |
| 20260507043507 | 48 | 237 | 9.6 | 19.1 | 0.00 | 0.36 | 0.11 | 67 | 1022.5 |
| 20260507043024 | 49 | 233 | 10.4 | 20.0 | 0.00 | 0.36 | 0.11 | 68 | 1022.5 |
| 20260507042512 | 49 | 223 | 11.3 | 20.0 | 0.00 | 0.36 | 0.11 | 69 | 1022.4 |
| 20260507042008 | 49 | 218 | 7.8 | 14.8 | 0.00 | 0.36 | 0.11 | 71 | 1022.5 |
| 20260507041507 | 48 | 231 | 8.7 | 14.8 | 0.00 | 0.36 | 0.11 | 71 | 1022.5 |
| 20260507041003 | 48 | 253 | 9.6 | 15.6 | 0.00 | 0.36 | 0.11 | 70 | 1022.5 |
| 20260507040504 | 48 | 195 | 11.3 | 19.1 | 0.00 | 0.36 | 0.11 | 70 | 1022.6 |
| 20260507040011 | 48 | 222 | 8.7 | 19.1 | 0.00 | 0.36 | 0.11 | 69 | 1022.5 |
| 20260507035507 | 48 | 210 | 9.6 | 17.4 | 0.00 | 0.36 | 0.11 | 69 | 1022.4 |
| 20260507035007 | 48 | 197 | 11.3 | 22.6 | 0.00 | 0.36 | 0.11 | 69 | 1022.4 |
| 20260507034514 | 48 | 230 | 14.8 | 22.6 | 0.00 | 0.36 | 0.11 | 68 | 1022.4 |
| 20260507034004 | 48 | 241 | 9.6 | 16.5 | 0.00 | 0.36 | 0.11 | 69 | 1022.4 |
| 20260507033507 | 48 | 226 | 12.2 | 19.1 | 0.00 | 0.36 | 0.11 | 68 | 1022.4 |
| 20260507033015 | 48 | 220 | 11.3 | 19.1 | 0.00 | 0.36 | 0.11 | 69 | 1022.3 |
| 20260507032504 | 48 | 191 | 10.4 | 18.2 | 0.00 | 0.36 | 0.11 | 71 | 1022.1 |
| 20260507032011 | 48 | 201 | 10.4 | 19.1 | 0.00 | 0.36 | 0.11 | 71 | 1022.3 |
| 20260507031011 | 47 | 204 | 13.0 | 20.9 | 0.00 | 0.36 | 0.11 | 73 | 1022.3 |
| 20260507030013 | 45 | 189 | 7.0 | 15.6 | 0.00 | 0.35 | 0.11 | 79 | 1022.4 |
| 20260507025504 | 45 | 202 | 7.8 | 15.6 | 0.00 | 0.35 | 0.11 | 79 | 1022.5 |
| 20260507025004 | 45 | 172 | 10.4 | 20.0 | 0.00 | 0.35 | 0.11 | 77 | 1022.6 |
| 20260507024514 | 45 | 191 | 10.4 | 20.0 | 0.00 | 0.35 | 0.11 | 75 | 1022.5 |
| 20260507024006 | 46 | 220 | 13.9 | 22.6 | 0.00 | 0.35 | 0.11 | 73 | 1022.6 |
| 20260507023505 | 47 | 219 | 14.8 | 22.6 | 0.00 | 0.35 | 0.11 | 69 | 1022.6 |
| 20260507023003 | 47 | 219 | 13.9 | 20.9 | 0.00 | 0.35 | 0.11 | 69 | 1022.6 |
| 20260507022504 | 48 | 185 | 9.6 | 19.1 | 0.00 | 0.35 | 0.11 | 72 | 1022.6 |